| time (UTC) | temp F | wind direction | speed knots | gust knots | rain 1hr in | rain 24hr in | rain mn in | humidity % | barometer mb |
| 20260510143825 | 56 | 19 | 0.0 | 0.0 | 0.00 | 0.00 | 0.00 | 57 | 1022.7 |
| 20260510143321 | 56 | 53 | 0.0 | 4.3 | 0.00 | 0.00 | 0.00 | 58 | 1022.6 |
| 20260510143015 | 56 | 71 | 0.0 | 4.3 | 0.00 | 0.00 | 0.00 | 59 | 1020.8 |
| 20260510142823 | 56 | 79 | 0.0 | 4.3 | 0.00 | 0.00 | 0.00 | 58 | 1022.5 |
| 20260510142318 | 56 | 94 | 0.0 | 0.0 | 0.00 | 0.00 | 0.00 | 60 | 1022.5 |
| 20260510141825 | 57 | 28 | 0.0 | 0.0 | 0.00 | 0.00 | 0.00 | 62 | 1022.5 |
| 20260510141552 | 56 | 40 | 0.0 | 0.0 | 0.00 | 0.00 | 0.00 | 62 | 1020.6 |
| 20260510141347 | 57 | 70 | 0.0 | 0.0 | 0.00 | 0.00 | 0.00 | 63 | 1022.3 |
| 20260510140848 | 57 | 61 | 0.0 | 0.0 | 0.00 | 0.00 | 0.00 | 62 | 1022.1 |
| 20260510140321 | 57 | 57 | 0.0 | 2.6 | 0.00 | 0.00 | 0.00 | 61 | 1022.0 |
| 20260510140025 | 57 | 25 | 0.0 | 2.6 | 0.00 | 0.00 | 0.00 | 61 | 1020.3 |
| 20260510135823 | 57 | 101 | 0.0 | 0.0 | 0.00 | 0.00 | 0.00 | 61 | 1021.9 |
| 20260510135325 | 57 | 107 | 0.0 | 0.0 | 0.00 | 0.00 | 0.00 | 59 | 1021.7 |
| 20260510134844 | 57 | 107 | 0.0 | 0.0 | 0.00 | 0.00 | 0.00 | 58 | 1021.8 |
| 20260510134523 | 57 | 69 | 0.0 | 0.0 | 0.00 | 0.00 | 0.00 | 58 | 1020.1 |
| 20260510134330 | 57 | 69 | 0.0 | 0.0 | 0.00 | 0.00 | 0.00 | 58 | 1021.9 |
| 20260510133834 | 57 | 74 | 0.0 | 0.0 | 0.00 | 0.00 | 0.00 | 58 | 1021.9 |
| 20260510133334 | 57 | 76 | 0.0 | 0.0 | 0.00 | 0.00 | 0.00 | 59 | 1021.8 |
| 20260510133102 | 57 | 64 | 0.0 | 0.0 | 0.00 | 0.00 | 0.00 | 59 | 1020.1 |
| 20260510132825 | 57 | 64 | 0.0 | 0.0 | 0.00 | 0.00 | 0.00 | 59 | 1021.8 |
| 20260510132343 | 57 | 123 | 0.0 | 0.0 | 0.00 | 0.00 | 0.00 | 59 | 1021.8 |
| 20260510131835 | 57 | 128 | 0.0 | 2.6 | 0.00 | 0.00 | 0.00 | 59 | 1021.8 |
| 20260510131513 | 57 | 94 | 0.0 | 2.6 | 0.00 | 0.00 | 0.00 | 59 | 1019.9 |
| 20260510131332 | 57 | 126 | 0.0 | 2.6 | 0.00 | 0.00 | 0.00 | 59 | 1021.5 |
| 20260510130828 | 57 | 80 | 0.0 | 0.9 | 0.00 | 0.00 | 0.00 | 60 | 1021.3 |
| 20260510130325 | 57 | 69 | 0.0 | 0.9 | 0.00 | 0.00 | 0.00 | 61 | 1021.0 |
| 20260510130035 | 57 | 67 | 0.0 | 0.9 | 0.00 | 0.00 | 0.00 | 61 | 1019.2 |
| 20260510125827 | 57 | 52 | 0.0 | 0.9 | 0.00 | 0.00 | 0.00 | 61 | 1020.8 |
| 20260510125349 | 57 | 38 | 0.0 | 0.9 | 0.00 | 0.00 | 0.00 | 63 | 1020.6 |
| 20260510124817 | 57 | 15 | 0.0 | 0.9 | 0.00 | 0.00 | 0.00 | 65 | 1020.3 |
| 20260510124507 | 56 | 73 | 0.0 | 0.9 | 0.00 | 0.00 | 0.00 | 66 | 1018.4 |
| 20260510124322 | 57 | 63 | 0.0 | 0.9 | 0.00 | 0.00 | 0.00 | 66 | 1020.1 |
| 20260510123820 | 57 | 65 | 0.0 | 0.9 | 0.00 | 0.00 | 0.00 | 67 | 1020.1 |
| 20260510123319 | 57 | 43 | 0.0 | 0.9 | 0.00 | 0.00 | 0.00 | 67 | 1019.8 |
| 20260510123029 | 56 | 15 | 0.0 | 0.9 | 0.00 | 0.00 | 0.00 | 68 | 1017.8 |
| 20260510122830 | 57 | 53 | 0.0 | 0.9 | 0.00 | 0.00 | 0.00 | 68 | 1019.5 |
| 20260510122335 | 57 | 57 | 0.0 | 3.5 | 0.00 | 0.00 | 0.00 | 68 | 1019.3 |
| 20260510121853 | 57 | 344 | 0.9 | 3.5 | 0.00 | 0.00 | 0.00 | 68 | 1019.4 |
| 20260510121518 | 57 | 71 | 0.0 | 0.0 | 0.00 | 0.00 | 0.00 | 67 | 1017.4 |
| 20260510121327 | 58 | 42 | 0.0 | 0.0 | 0.00 | 0.00 | 0.00 | 67 | 1019.1 |
| 20260510120826 | 58 | 32 | 0.0 | 0.0 | 0.00 | 0.00 | 0.00 | 67 | 1019.1 |
| 20260510120325 | 58 | 37 | 0.0 | 1.7 | 0.00 | 0.00 | 0.00 | 66 | 1019.0 |
| 20260510120051 | 58 | 5 | 0.0 | 2.6 | 0.00 | 0.00 | 0.00 | 65 | 1017.0 |
| 20260510115849 | 59 | 11 | 0.0 | 3.5 | 0.00 | 0.00 | 0.00 | 64 | 1018.5 |
| 20260510115346 | 59 | 57 | 0.0 | 7.8 | 0.00 | 0.00 | 0.00 | 63 | 1018.3 |
| 20260510114819 | 59 | 42 | 0.9 | 7.8 | 0.00 | 0.00 | 0.00 | 62 | 1018.1 |
| 20260510114520 | 59 | 67 | 0.0 | 2.6 | 0.00 | 0.00 | 0.00 | 62 | 1016.3 |
| 20260510114320 | 59 | 49 | 0.0 | 0.9 | 0.00 | 0.00 | 0.00 | 62 | 1017.9 |
| 20260510113828 | 59 | 63 | 0.0 | 4.3 | 0.00 | 0.00 | 0.00 | 62 | 1017.8 |
| 20260510113329 | 59 | 20 | 0.0 | 4.3 | 0.00 | 0.00 | 0.00 | 62 | 1017.5 |
| 20260510113044 | 59 | 75 | 0.0 | 4.3 | 0.00 | 0.00 | 0.00 | 62 | 1015.7 |
| 20260510112819 | 59 | 22 | 0.0 | 3.5 | 0.00 | 0.00 | 0.00 | 62 | 1017.5 |
| 20260510112349 | 59 | 40 | 0.0 | 8.7 | 0.00 | 0.00 | 0.00 | 63 | 1017.3 |
| 20260510111829 | 59 | 71 | 2.6 | 8.7 | 0.00 | 0.00 | 0.00 | 63 | 1017.0 |
| 20260510111551 | 59 | 84 | 0.0 | 7.8 | 0.00 | 0.00 | 0.00 | 63 | 1015.2 |
| 20260510111345 | 59 | 13 | 0.0 | 7.8 | 0.00 | 0.00 | 0.00 | 64 | 1016.9 |
| 20260510110823 | 59 | 11 | 0.9 | 12.2 | 0.00 | 0.00 | 0.00 | 64 | 1016.8 |
| 20260510110353 | 59 | 25 | 3.5 | 12.2 | 0.00 | 0.00 | 0.00 | 65 | 1016.7 |
| 20260510110046 | 59 | 34 | 0.0 | 0.9 | 0.00 | 0.00 | 0.00 | 65 | 1015.1 |
| 20260510105832 | 59 | 26 | 0.0 | 9.6 | 0.00 | 0.00 | 0.00 | 65 | 1016.9 |
| 20260510105326 | 59 | 5 | 0.9 | 9.6 | 0.00 | 0.00 | 0.00 | 66 | 1017.0 |
| 20260510104830 | 59 | 53 | 0.0 | 4.3 | 0.00 | 0.00 | 0.00 | 66 | 1016.9 |
| 20260510104619 | 58 | 15 | 0.0 | 4.3 | 0.00 | 0.00 | 0.00 | 66 | 1015.2 |
| 20260510104329 | 59 | 31 | 0.0 | 4.3 | 0.00 | 0.00 | 0.00 | 67 | 1017.0 |
| 20260510103817 | 59 | 49 | 0.0 | 0.9 | 0.00 | 0.00 | 0.00 | 67 | 1017.0 |
| 20260510103328 | 59 | 16 | 0.0 | 0.9 | 0.00 | 0.00 | 0.00 | 67 | 1017.1 |
| 20260510103053 | 58 | 29 | 0.0 | 0.9 | 0.00 | 0.00 | 0.00 | 67 | 1015.4 |
| 20260510102832 | 59 | 29 | 0.0 | 0.9 | 0.00 | 0.00 | 0.00 | 66 | 1017.1 |
| 20260510102318 | 59 | 31 | 0.0 | 0.0 | 0.00 | 0.00 | 0.00 | 66 | 1017.0 |
| 20260510101905 | 59 | 11 | 0.0 | 0.0 | 0.00 | 0.00 | 0.00 | 66 | 1016.9 |
| 20260510101556 | 59 | 41 | 0.0 | 8.7 | 0.00 | 0.00 | 0.00 | 66 | 1015.2 |
| 20260510101346 | 59 | 38 | 0.0 | 8.7 | 0.00 | 0.00 | 0.00 | 65 | 1016.8 |
| 20260510100818 | 59 | 56 | 0.0 | 0.9 | 0.00 | 0.00 | 0.00 | 65 | 1016.7 |
| 20260510100319 | 59 | 34 | 0.0 | 6.1 | 0.00 | 0.00 | 0.00 | 65 | 1016.6 |
| 20260510100002 | 59 | 339 | 0.0 | 6.1 | 0.00 | 0.00 | 0.00 | 65 | 1014.9 |
| 20260510095818 | 60 | 23 | 0.0 | 6.1 | 0.00 | 0.00 | 0.00 | 65 | 1016.5 |
| 20260510095325 | 60 | 346 | 0.0 | 0.9 | 0.00 | 0.00 | 0.00 | 64 | 1016.5 |
| 20260510094828 | 60 | 346 | 0.0 | 4.3 | 0.00 | 0.00 | 0.00 | 64 | 1016.4 |
| 20260510094700 | 59 | 344 | 0.0 | 4.3 | 0.00 | 0.00 | 0.00 | 64 | 1014.7 |
| 20260510094343 | 60 | 11 | 0.0 | 7.0 | 0.00 | 0.00 | 0.00 | 64 | 1016.2 |
| 20260510093846 | 60 | 22 | 0.0 | 7.0 | 0.00 | 0.00 | 0.00 | 64 | 1016.1 |
| 20260510093329 | 60 | 49 | 0.0 | 5.2 | 0.00 | 0.00 | 0.00 | 64 | 1016.0 |
| 20260510093100 | 60 | 19 | 0.0 | 0.9 | 0.00 | 0.00 | 0.00 | 64 | 1014.4 |
| 20260510092814 | 60 | 23 | 0.0 | 0.9 | 0.00 | 0.00 | 0.00 | 64 | 1016.0 |
| 20260510092411 | 60 | 331 | 0.0 | 0.9 | 0.00 | 0.00 | 0.00 | 64 | 1016.0 |
| 20260510091815 | 60 | 30 | 0.0 | 0.9 | 0.00 | 0.00 | 0.00 | 63 | 1015.9 |
| 20260510091506 | 60 | 33 | 0.0 | 0.9 | 0.00 | 0.00 | 0.00 | 63 | 1014.1 |
| 20260510091321 | 60 | 38 | 0.0 | 5.2 | 0.00 | 0.00 | 0.00 | 64 | 1015.9 |
| 20260510090850 | 61 | 37 | 0.0 | 5.2 | 0.00 | 0.00 | 0.00 | 64 | 1015.7 |
| 20260510090321 | 61 | 35 | 0.0 | 0.9 | 0.00 | 0.00 | 0.00 | 64 | 1015.7 |
| 20260510090018 | 60 | 30 | 0.0 | 0.9 | 0.00 | 0.00 | 0.00 | 64 | 1014.0 |
| 20260510085820 | 61 | 65 | 0.0 | 0.0 | 0.00 | 0.00 | 0.00 | 63 | 1015.6 |
| 20260510085329 | 61 | 11 | 0.0 | 0.0 | 0.00 | 0.00 | 0.00 | 63 | 1015.6 |
| 20260510084835 | 61 | 56 | 0.0 | 0.0 | 0.00 | 0.00 | 0.00 | 63 | 1015.6 |
| 20260510084603 | 60 | 37 | 0.0 | 0.9 | 0.00 | 0.00 | 0.00 | 63 | 1014.0 |
| 20260510084324 | 61 | 45 | 0.0 | 0.9 | 0.00 | 0.00 | 0.00 | 63 | 1015.5 |
| 20260510083826 | 61 | 40 | 0.0 | 0.9 | 0.00 | 0.00 | 0.00 | 63 | 1015.5 |
| 20260510083330 | 61 | 10 | 0.0 | 0.9 | 0.00 | 0.00 | 0.00 | 63 | 1015.4 |
| 20260510083040 | 60 | 34 | 0.0 | 0.0 | 0.00 | 0.00 | 0.00 | 63 | 1013.8 |
| 20260510082839 | 61 | 36 | 0.0 | 0.0 | 0.00 | 0.00 | 0.00 | 63 | 1015.4 |
| 20260510082319 | 61 | 52 | 0.0 | 7.8 | 0.00 | 0.00 | 0.00 | 63 | 1015.5 |
| 20260510081820 | 61 | 15 | 0.0 | 7.8 | 0.00 | 0.00 | 0.00 | 63 | 1015.4 |
| 20260510081543 | 61 | 50 | 0.9 | 7.8 | 0.00 | 0.00 | 0.00 | 63 | 1013.8 |
| 20260510081321 | 61 | 30 | 0.0 | 3.5 | 0.00 | 0.00 | 0.00 | 64 | 1015.4 |
| 20260510080852 | 62 | 22 | 0.0 | 0.9 | 0.00 | 0.00 | 0.00 | 64 | 1015.3 |
| 20260510080328 | 62 | 31 | 0.0 | 0.9 | 0.00 | 0.00 | 0.00 | 63 | 1015.3 |
| 20260510080041 | 62 | 57 | 0.0 | 0.9 | 0.00 | 0.00 | 0.00 | 63 | 1013.7 |
| 20260510075826 | 62 | 61 | 0.0 | 0.9 | 0.00 | 0.00 | 0.00 | 63 | 1015.3 |
| 20260510075349 | 63 | 55 | 0.0 | 1.7 | 0.00 | 0.00 | 0.00 | 62 | 1015.3 |
| 20260510074832 | 63 | 47 | 0.0 | 1.7 | 0.00 | 0.00 | 0.00 | 61 | 1015.2 |
| 20260510074607 | 62 | 26 | 0.0 | 1.7 | 0.00 | 0.00 | 0.00 | 61 | 1013.5 |
| 20260510074326 | 63 | 26 | 0.0 | 0.0 | 0.00 | 0.00 | 0.00 | 61 | 1015.1 |
| 20260510073822 | 63 | 20 | 0.0 | 7.8 | 0.00 | 0.00 | 0.00 | 61 | 1015.1 |
| 20260510073331 | 63 | 11 | 0.9 | 7.8 | 0.00 | 0.00 | 0.00 | 61 | 1015.0 |
| 20260510073043 | 62 | 5 | 0.0 | 0.0 | 0.00 | 0.00 | 0.00 | 61 | 1013.5 |
| 20260510072825 | 63 | 41 | 0.0 | 0.0 | 0.00 | 0.00 | 0.00 | 61 | 1015.1 |
| 20260510072331 | 63 | 53 | 0.0 | 0.0 | 0.00 | 0.00 | 0.00 | 60 | 1015.0 |
| 20260510071827 | 63 | 63 | 0.0 | 0.0 | 0.00 | 0.00 | 0.00 | 60 | 1014.9 |
| 20260510071611 | 62 | 360 | 0.0 | 0.0 | 0.00 | 0.00 | 0.00 | 60 | 1013.3 |
| 20260510071358 | 63 | 5 | 0.0 | 0.9 | 0.00 | 0.00 | 0.00 | 60 | 1014.8 |
| 20260510070834 | 63 | 360 | 0.0 | 0.9 | 0.00 | 0.00 | 0.00 | 60 | 1014.7 |
| 20260510070401 | 63 | 50 | 0.0 | 0.0 | 0.00 | 0.00 | 0.00 | 60 | 1014.6 |
| 20260510070052 | 62 | 26 | 0.0 | 0.0 | 0.00 | 0.00 | 0.00 | 60 | 1013.0 |
| 20260510065849 | 63 | 42 | 0.0 | 0.0 | 0.00 | 0.00 | 0.00 | 60 | 1014.5 |
| 20260510065318 | 63 | 23 | 0.0 | 0.0 | 0.00 | 0.00 | 0.00 | 60 | 1014.4 |
| 20260510064829 | 63 | 47 | 0.0 | 0.0 | 0.00 | 0.00 | 0.00 | 60 | 1014.5 |
| 20260510064507 | 63 | 27 | 0.0 | 0.0 | 0.00 | 0.00 | 0.00 | 60 | 1012.8 |
| 20260510064331 | 63 | 50 | 0.0 | 0.0 | 0.00 | 0.00 | 0.00 | 60 | 1014.4 |
| 20260510063829 | 64 | 90 | 0.0 | 0.0 | 0.00 | 0.00 | 0.00 | 60 | 1014.2 |
| 20260510063330 | 64 | 26 | 0.0 | 0.0 | 0.00 | 0.00 | 0.00 | 60 | 1014.1 |
| 20260510063042 | 63 | 48 | 0.0 | 0.9 | 0.00 | 0.00 | 0.00 | 59 | 1012.5 |
| 20260510062831 | 64 | 47 | 0.0 | 0.9 | 0.00 | 0.00 | 0.00 | 59 | 1014.1 |
| 20260510062348 | 64 | 30 | 0.0 | 0.9 | 0.00 | 0.00 | 0.00 | 59 | 1014.1 |
| 20260510061850 | 65 | 54 | 0.0 | 0.9 | 0.00 | 0.00 | 0.00 | 59 | 1014.1 |
| 20260510061602 | 64 | 57 | 0.0 | 0.9 | 0.00 | 0.00 | 0.00 | 59 | 1012.5 |
| 20260510061341 | 65 | 48 | 0.0 | 0.0 | 0.00 | 0.00 | 0.00 | 58 | 1014.0 |
| 20260510060826 | 65 | 28 | 0.0 | 0.9 | 0.00 | 0.00 | 0.00 | 58 | 1014.0 |
| 20260510060331 | 65 | 43 | 0.0 | 0.9 | 0.00 | 0.00 | 0.00 | 57 | 1013.9 |
| 20260510060022 | 65 | 65 | 0.0 | 0.9 | 0.00 | 0.00 | 0.00 | 57 | 1012.3 |
| 20260510055831 | 65 | 51 | 0.0 | 0.9 | 0.00 | 0.00 | 0.00 | 57 | 1013.7 |
| 20260510055326 | 66 | 30 | 0.0 | 0.9 | 0.00 | 0.00 | 0.00 | 56 | 1013.6 |
| 20260510054830 | 66 | 52 | 0.0 | 3.5 | 0.00 | 0.00 | 0.00 | 56 | 1013.4 |
| 20260510054552 | 65 | 42 | 0.0 | 3.5 | 0.00 | 0.00 | 0.00 | 56 | 1012.0 |
| 20260510054338 | 66 | 42 | 0.0 | 3.5 | 0.00 | 0.00 | 0.00 | 57 | 1013.5 |
| 20260510053829 | 65 | 32 | 0.0 | 0.9 | 0.00 | 0.00 | 0.00 | 57 | 1013.3 |
| 20260510053331 | 65 | 44 | 0.0 | 0.9 | 0.00 | 0.00 | 0.00 | 58 | 1013.2 |
| 20260510053019 | 65 | 91 | 0.0 | 0.9 | 0.00 | 0.00 | 0.00 | 58 | 1011.7 |
| 20260510052833 | 65 | 55 | 0.0 | 0.9 | 0.00 | 0.00 | 0.00 | 58 | 1013.2 |
| 20260510052339 | 65 | 91 | 0.0 | 0.9 | 0.00 | 0.00 | 0.00 | 59 | 1013.1 |
| 20260510051842 | 65 | 94 | 0.0 | 0.0 | 0.00 | 0.00 | 0.00 | 59 | 1013.0 |
| 20260510051607 | 64 | 90 | 0.0 | 0.0 | 0.00 | 0.00 | 0.00 | 60 | 1011.4 |
| 20260510051332 | 65 | 71 | 0.0 | 0.0 | 0.00 | 0.00 | 0.00 | 60 | 1013.0 |
| 20260510050818 | 65 | 70 | 0.0 | 0.0 | 0.00 | 0.00 | 0.00 | 60 | 1013.0 |
| 20260510050322 | 65 | 69 | 0.0 | 0.0 | 0.00 | 0.00 | 0.00 | 60 | 1013.1 |
| 20260510050039 | 65 | 69 | 0.0 | 0.0 | 0.00 | 0.00 | 0.00 | 60 | 1011.7 |
| 20260510045819 | 65 | 69 | 0.0 | 0.0 | 0.00 | 0.00 | 0.00 | 60 | 1013.3 |
| 20260510045314 | 65 | 73 | 0.0 | 0.0 | 0.00 | 0.00 | 0.00 | 59 | 1013.3 |
| 20260510044820 | 66 | 78 | 0.0 | 0.0 | 0.00 | 0.00 | 0.00 | 59 | 1013.2 |
| 20260510044522 | 65 | 78 | 0.0 | 0.0 | 0.00 | 0.00 | 0.00 | 59 | 1011.7 |
| 20260510044326 | 66 | 88 | 0.0 | 0.9 | 0.00 | 0.00 | 0.00 | 59 | 1013.0 |
| 20260510043829 | 66 | 90 | 0.0 | 0.9 | 0.00 | 0.00 | 0.00 | 58 | 1013.0 |
| 20260510043327 | 66 | 56 | 0.0 | 0.0 | 0.00 | 0.00 | 0.00 | 58 | 1012.9 |
| 20260510043101 | 66 | 48 | 0.0 | 0.0 | 0.00 | 0.00 | 0.00 | 58 | 1011.4 |
| 20260510042846 | 67 | 52 | 0.0 | 0.0 | 0.00 | 0.00 | 0.00 | 58 | 1012.9 |
| 20260510042327 | 67 | 51 | 0.0 | 0.0 | 0.00 | 0.00 | 0.00 | 57 | 1012.9 |
| 20260510041852 | 67 | 61 | 0.0 | 0.0 | 0.00 | 0.00 | 0.00 | 56 | 1012.8 |
| 20260510041613 | 67 | 41 | 0.0 | 0.0 | 0.00 | 0.00 | 0.00 | 56 | 1011.3 |
| 20260510041317 | 68 | 48 | 0.0 | 0.0 | 0.00 | 0.00 | 0.00 | 56 | 1012.9 |
| 20260510040905 | 68 | 64 | 0.0 | 0.9 | 0.00 | 0.00 | 0.00 | 55 | 1012.9 |
| 20260510040344 | 68 | 57 | 0.0 | 0.0 | 0.00 | 0.00 | 0.00 | 55 | 1012.8 |
| 20260510040052 | 68 | 45 | 0.0 | 3.5 | 0.00 | 0.00 | 0.00 | 55 | 1011.3 |
| 20260510035835 | 68 | 46 | 0.0 | 3.5 | 0.00 | 0.00 | 0.00 | 55 | 1012.7 |
| 20260510035357 | 69 | 53 | 0.0 | 0.0 | 0.00 | 0.00 | 0.00 | 55 | 1012.8 |
| 20260510034836 | 69 | 22 | 0.0 | 0.0 | 0.00 | 0.00 | 0.00 | 54 | 1012.8 |
| 20260510034547 | 68 | 59 | 0.0 | 0.0 | 0.00 | 0.00 | 0.00 | 54 | 1011.0 |
| 20260510034344 | 69 | 66 | 0.0 | 0.0 | 0.00 | 0.00 | 0.00 | 54 | 1012.4 |
| 20260510033843 | 69 | 27 | 0.0 | 0.0 | 0.00 | 0.00 | 0.00 | 54 | 1012.4 |
| 20260510033320 | 69 | 40 | 0.0 | 0.0 | 0.00 | 0.00 | 0.00 | 54 | 1012.7 |
| 20260510033003 | 69 | 38 | 0.0 | 0.0 | 0.00 | 0.00 | 0.00 | 53 | 1011.3 |
| 20260510032853 | 69 | 18 | 0.0 | 0.0 | 0.00 | 0.00 | 0.00 | 53 | 1012.7 |
| 20260510032331 | 70 | 31 | 0.0 | 0.0 | 0.00 | 0.00 | 0.00 | 53 | 1012.5 |
| 20260510031844 | 70 | 61 | 0.0 | 0.0 | 0.00 | 0.00 | 0.00 | 52 | 1012.5 |
| 20260510031600 | 70 | 39 | 0.0 | 0.0 | 0.00 | 0.00 | 0.00 | 52 | 1011.0 |
| 20260510031345 | 70 | 66 | 0.0 | 0.0 | 0.00 | 0.00 | 0.00 | 52 | 1012.4 |
| 20260510030848 | 71 | 140 | 0.0 | 0.0 | 0.00 | 0.00 | 0.00 | 51 | 1012.4 |
| 20260510030327 | 71 | 143 | 0.0 | 0.0 | 0.00 | 0.00 | 0.00 | 50 | 1012.2 |
| 20260510030053 | 71 | 143 | 0.0 | 0.0 | 0.00 | 0.00 | 0.00 | 50 | 1010.8 |
| 20260510025820 | 71 | 143 | 0.0 | 1.7 | 0.00 | 0.00 | 0.00 | 49 | 1012.3 |
| 20260510025349 | 71 | 144 | 0.0 | 1.7 | 0.00 | 0.00 | 0.00 | 49 | 1012.1 |
| 20260510024834 | 72 | 155 | 0.0 | 0.0 | 0.00 | 0.00 | 0.00 | 49 | 1011.8 |
| 20260510024510 | 71 | 163 | 0.0 | 0.9 | 0.00 | 0.00 | 0.00 | 48 | 1010.3 |
| 20260510024346 | 72 | 113 | 0.0 | 0.9 | 0.00 | 0.00 | 0.00 | 48 | 1011.7 |
| 20260510023837 | 72 | 102 | 0.0 | 0.9 | 0.00 | 0.00 | 0.00 | 48 | 1011.4 |
| 20260510023321 | 72 | 90 | 0.0 | 0.0 | 0.00 | 0.00 | 0.00 | 47 | 1011.3 |
| 20260510023028 | 72 | 90 | 0.0 | 0.0 | 0.00 | 0.00 | 0.00 | 47 | 1009.9 |
| 20260510022819 | 73 | 91 | 0.0 | 0.9 | 0.00 | 0.00 | 0.00 | 47 | 1011.3 |
| 20260510022343 | 73 | 30 | 0.0 | 0.9 | 0.00 | 0.00 | 0.00 | 47 | 1010.9 |
| 20260510021842 | 73 | 71 | 0.0 | 0.9 | 0.00 | 0.00 | 0.00 | 47 | 1010.4 |
| 20260510021559 | 72 | 108 | 0.0 | 0.9 | 0.00 | 0.00 | 0.00 | 47 | 1008.9 |
| 20260510021342 | 73 | 48 | 0.0 | 0.0 | 0.00 | 0.00 | 0.00 | 47 | 1010.2 |
| 20260510020829 | 73 | 53 | 0.0 | 6.1 | 0.00 | 0.00 | 0.00 | 46 | 1009.6 |
| 20260510020323 | 74 | 69 | 0.0 | 11.3 | 0.00 | 0.00 | 0.00 | 45 | 1009.6 |
| 20260510020013 | 74 | 66 | 0.0 | 11.3 | 0.00 | 0.00 | 0.00 | 44 | 1008.4 |
| 20260510015819 | 75 | 51 | 0.9 | 11.3 | 0.00 | 0.00 | 0.00 | 43 | 1010.1 |
| 20260510015316 | 76 | 76 | 0.0 | 0.9 | 0.00 | 0.00 | 0.00 | 41 | 1010.6 |
| 20260510014819 | 77 | 44 | 0.0 | 0.0 | 0.00 | 0.00 | 0.00 | 39 | 1010.9 |
| 20260510014539 | 76 | 32 | 0.0 | 0.0 | 0.00 | 0.00 | 0.00 | 39 | 1009.7 |
| 20260510014328 | 77 | 30 | 0.0 | 0.0 | 0.00 | 0.00 | 0.00 | 38 | 1011.2 |
| 20260510013847 | 77 | 22 | 0.0 | 0.9 | 0.00 | 0.00 | 0.00 | 38 | 1011.3 |
| 20260510013328 | 77 | 36 | 0.0 | 0.9 | 0.00 | 0.00 | 0.00 | 37 | 1011.6 |
| 20260510013032 | 76 | 355 | 0.0 | 7.0 | 0.00 | 0.00 | 0.00 | 37 | 1010.3 |
| 20260510012830 | 77 | 36 | 0.0 | 7.0 | 0.00 | 0.00 | 0.00 | 37 | 1011.7 |
| 20260510012332 | 77 | 49 | 0.0 | 0.9 | 0.00 | 0.00 | 0.00 | 38 | 1011.7 |
| 20260510011917 | 77 | 13 | 0.0 | 4.3 | 0.00 | 0.00 | 0.00 | 39 | 1011.6 |
| 20260510011533 | 76 | 36 | 0.0 | 4.3 | 0.00 | 0.00 | 0.00 | 39 | 1010.1 |
| 20260510011333 | 77 | 52 | 0.0 | 11.3 | 0.00 | 0.00 | 0.00 | 38 | 1011.4 |
| 20260510010828 | 77 | 29 | 0.0 | 12.2 | 0.00 | 0.00 | 0.00 | 37 | 1011.3 |
| 20260510010328 | 76 | 264 | 3.5 | 12.2 | 0.00 | 0.00 | 0.00 | 35 | 1010.8 |
| 20260510010037 | 76 | 111 | 1.7 | 11.3 | 0.00 | 0.00 | 0.00 | 39 | 1009.4 |
| 20260510005825 | 76 | 204 | 0.0 | 3.5 | 0.00 | 0.00 | 0.00 | 37 | 1011.1 |
| 20260510005318 | 76 | 190 | 0.0 | 0.0 | 0.00 | 0.00 | 0.00 | 38 | 1010.4 |
| 20260510004828 | 77 | 168 | 0.0 | 0.0 | 0.00 | 0.00 | 0.00 | 42 | 1009.7 |
| 20260510004558 | 76 | 168 | 0.0 | 0.0 | 0.00 | 0.00 | 0.00 | 39 | 1008.0 |
| 20260510004333 | 77 | 168 | 0.0 | 0.0 | 0.00 | 0.00 | 0.00 | 38 | 1009.1 |
| 20260510003839 | 78 | 168 | 0.0 | 0.0 | 0.00 | 0.00 | 0.00 | 39 | 1008.8 |
| 20260510003355 | 78 | 149 | 0.0 | 0.0 | 0.00 | 0.00 | 0.00 | 39 | 1008.4 |
| 20260510003047 | 78 | 149 | 0.0 | 0.0 | 0.00 | 0.00 | 0.00 | 39 | 1006.7 |
| 20260510002839 | 79 | 149 | 0.0 | 0.0 | 0.00 | 0.00 | 0.00 | 38 | 1008.1 |
| 20260510002327 | 79 | 149 | 0.0 | 0.0 | 0.00 | 0.00 | 0.00 | 35 | 1007.9 |
| 20260510001827 | 79 | 149 | 0.0 | 0.0 | 0.00 | 0.00 | 0.00 | 34 | 1007.8 |
| 20260510001509 | 78 | 149 | 0.0 | 0.0 | 0.00 | 0.00 | 0.00 | 33 | 1006.3 |
| 20260510001415 | 79 | 149 | 0.0 | 0.0 | 0.00 | 0.00 | 0.00 | 32 | 1007.7 |
| 20260510000821 | 79 | 178 | 0.0 | 0.0 | 0.00 | 0.00 | 0.00 | 34 | 1007.5 |
| 20260510000348 | 79 | 219 | 0.0 | 0.0 | 0.00 | 0.00 | 0.00 | 36 | 1007.6 |
| 20260510000132 | 78 | 223 | 0.0 | 0.0 | 0.00 | 0.00 | 0.00 | 37 | 1006.2 |
| 20260509235822 | 79 | 223 | 0.0 | 0.0 | 0.00 | 0.00 | 0.00 | 37 | 1007.6 |
| 20260509235318 | 79 | 223 | 0.0 | 0.0 | 0.00 | 0.00 | 0.00 | 39 | 1007.7 |
| 20260509234838 | 79 | 223 | 0.0 | 0.0 | 0.00 | 0.00 | 0.00 | 41 | 1007.7 |
| 20260509234509 | 79 | 224 | 0.0 | 0.0 | 0.00 | 0.00 | 0.00 | 42 | 1006.3 |
| 20260509234320 | 80 | 224 | 0.0 | 0.0 | 0.00 | 0.00 | 0.00 | 42 | 1007.7 |
| 20260509233825 | 81 | 224 | 0.0 | 0.0 | 0.00 | 0.00 | 0.00 | 47 | 1007.7 |
| 20260509233347 | 81 | 224 | 0.0 | 0.0 | 0.00 | 0.00 | 0.00 | 45 | 1007.8 |
| 20260509233031 | 81 | 224 | 0.0 | 0.0 | 0.00 | 0.00 | 0.00 | 44 | 1006.4 |
| 20260509232827 | 81 | 224 | 0.0 | 0.0 | 0.00 | 0.00 | 0.00 | 44 | 1007.8 |
| 20260509232437 | 81 | 224 | 0.0 | 0.0 | 0.00 | 0.00 | 0.00 | 41 | 1007.8 |
| 20260509231909 | 81 | 224 | 0.0 | 0.0 | 0.00 | 0.00 | 0.00 | 33 | 1007.9 |
| 20260509231532 | 81 | 224 | 0.0 | 0.0 | 0.00 | 0.00 | 0.00 | 36 | 1006.4 |
| 20260509231316 | 82 | 224 | 0.0 | 0.0 | 0.00 | 0.00 | 0.00 | 37 | 1007.8 |
| 20260509230840 | 83 | 224 | 0.0 | 0.0 | 0.00 | 0.00 | 0.00 | 45 | 1007.8 |
| 20260509230347 | 84 | 224 | 0.0 | 0.0 | 0.00 | 0.00 | 0.00 | 45 | 1007.9 |
| 20260509230108 | 83 | 224 | 0.0 | 0.0 | 0.00 | 0.00 | 0.00 | 41 | 1006.6 |
| 20260509225838 | 84 | 224 | 0.0 | 0.0 | 0.00 | 0.00 | 0.00 | 40 | 1008.0 |
| 20260509225317 | 84 | 224 | 0.0 | 0.0 | 0.00 | 0.00 | 0.00 | 37 | 1008.1 |
| 20260509224821 | 84 | 225 | 0.0 | 0.0 | 0.00 | 0.00 | 0.00 | 29 | 1008.1 |
| 20260509224515 | 84 | 225 | 0.0 | 0.0 | 0.00 | 0.00 | 0.00 | 33 | 1006.8 |
| 20260509224322 | 85 | 225 | 0.0 | 0.0 | 0.00 | 0.00 | 0.00 | 32 | 1008.1 |
| 20260509223819 | 84 | 225 | 0.0 | 0.0 | 0.00 | 0.00 | 0.00 | 27 | 1008.1 |
| 20260509223340 | 85 | 225 | 0.0 | 0.0 | 0.00 | 0.00 | 0.00 | 25 | 1008.0 |
| 20260509223036 | 85 | 225 | 0.0 | 0.0 | 0.00 | 0.00 | 0.00 | 32 | 1006.6 |
| 20260509222819 | 85 | 225 | 0.0 | 0.0 | 0.00 | 0.00 | 0.00 | 32 | 1008.0 |
| 20260509222342 | 85 | 225 | 0.0 | 0.0 | 0.00 | 0.00 | 0.00 | 22 | 1007.9 |
| 20260509221843 | 85 | 224 | 0.0 | 0.0 | 0.00 | 0.00 | 0.00 | 24 | 1007.9 |
| 20260509221613 | 84 | 224 | 0.0 | 0.0 | 0.00 | 0.00 | 0.00 | 24 | 1006.6 |
| 20260509221335 | 85 | 225 | 0.0 | 0.0 | 0.00 | 0.00 | 0.00 | 26 | 1007.8 |
| 20260509220818 | 85 | 252 | 0.0 | 0.0 | 0.00 | 0.00 | 0.00 | 24 | 1007.9 |
| 20260509220334 | 86 | 257 | 0.0 | 0.9 | 0.00 | 0.00 | 0.00 | 25 | 1007.8 |
| 20260509220009 | 86 | 269 | 0.0 | 2.6 | 0.00 | 0.00 | 0.00 | 25 | 1006.5 |
| 20260509215835 | 86 | 218 | 0.0 | 2.6 | 0.00 | 0.00 | 0.00 | 23 | 1007.8 |
| 20260509215328 | 86 | 157 | 0.0 | 2.6 | 0.00 | 0.00 | 0.00 | 23 | 1007.8 |
| 20260509214844 | 86 | 204 | 0.0 | 2.6 | 0.00 | 0.00 | 0.00 | 24 | 1007.8 |
| 20260509214516 | 86 | 179 | 0.0 | 2.6 | 0.00 | 0.00 | 0.00 | 24 | 1006.5 |
| 20260509214326 | 86 | 267 | 0.0 | 2.6 | 0.00 | 0.00 | 0.00 | 24 | 1007.8 |
| 20260509213821 | 85 | 207 | 0.0 | 2.6 | 0.00 | 0.00 | 0.00 | 24 | 1007.9 |
| 20260509213325 | 86 | 223 | 0.0 | 1.7 | 0.00 | 0.00 | 0.00 | 24 | 1007.9 |
| 20260509213035 | 85 | 213 | 0.0 | 0.0 | 0.00 | 0.00 | 0.00 | 24 | 1006.6 |
| 20260509212827 | 86 | 213 | 0.0 | 3.5 | 0.00 | 0.00 | 0.00 | 22 | 1007.8 |
| 20260509212426 | 86 | 162 | 0.0 | 3.5 | 0.00 | 0.00 | 0.00 | 23 | 1007.9 |
| 20260509211830 | 87 | 222 | 0.0 | 0.9 | 0.00 | 0.00 | 0.00 | 23 | 1008.0 |
| 20260509211506 | 86 | 207 | 0.0 | 0.9 | 0.00 | 0.00 | 0.00 | 23 | 1006.7 |
| 20260509211331 | 86 | 207 | 0.0 | 3.5 | 0.00 | 0.00 | 0.00 | 24 | 1008.0 |
| 20260509210850 | 86 | 129 | 0.0 | 3.5 | 0.00 | 0.00 | 0.00 | 24 | 1008.1 |
| 20260509210405 | 86 | 146 | 0.0 | 2.6 | 0.00 | 0.00 | 0.00 | 23 | 1008.0 |
| 20260509210002 | 86 | 132 | 0.0 | 6.1 | 0.00 | 0.00 | 0.00 | 24 | 1006.8 |
| 20260509205832 | 86 | 146 | 0.0 | 6.1 | 0.00 | 0.00 | 0.00 | 25 | 1008.1 |
| 20260509205406 | 86 | 230 | 1.7 | 6.1 | 0.00 | 0.00 | 0.00 | 24 | 1008.2 |
| 20260509204819 | 86 | 146 | 0.9 | 3.5 | 0.00 | 0.00 | 0.00 | 25 | 1008.2 |
| 20260509204524 | 85 | 267 | 0.0 | 0.9 | 0.00 | 0.00 | 0.00 | 27 | 1007.1 |
| 20260509204322 | 86 | 223 | 0.0 | 1.7 | 0.00 | 0.00 | 0.00 | 25 | 1008.4 |
| 20260509203820 | 86 | 132 | 0.0 | 4.3 | 0.00 | 0.00 | 0.00 | 25 | 1008.4 |
| 20260509203338 | 86 | 205 | 0.0 | 4.3 | 0.00 | 0.00 | 0.00 | 23 | 1008.6 |
| 20260509203048 | 86 | 241 | 0.0 | 4.3 | 0.00 | 0.00 | 0.00 | 25 | 1007.3 |
| 20260509202829 | 86 | 226 | 0.9 | 4.3 | 0.00 | 0.00 | 0.00 | 25 | 1008.6 |
| 20260509202319 | 86 | 165 | 0.0 | 6.1 | 0.00 | 0.00 | 0.00 | 25 | 1008.6 |
| 20260509201845 | 86 | 270 | 0.0 | 6.1 | 0.00 | 0.00 | 0.00 | 25 | 1008.6 |
| 20260509201552 | 86 | 238 | 0.0 | 6.1 | 0.00 | 0.00 | 0.00 | 25 | 1007.3 |
| 20260509201343 | 86 | 157 | 0.9 | 3.5 | 0.00 | 0.00 | 0.00 | 23 | 1008.6 |
| 20260509200820 | 86 | 222 | 0.0 | 3.5 | 0.00 | 0.00 | 0.00 | 25 | 1008.8 |
| 20260509200319 | 87 | 222 | 0.0 | 0.0 | 0.00 | 0.00 | 0.00 | 25 | 1008.8 |
| 20260509200024 | 86 | 214 | 0.0 | 0.9 | 0.00 | 0.00 | 0.00 | 26 | 1007.6 |
| 20260509195817 | 86 | 244 | 0.0 | 0.9 | 0.00 | 0.00 | 0.00 | 27 | 1008.8 |
| 20260509195329 | 86 | 142 | 0.0 | 3.5 | 0.00 | 0.00 | 0.00 | 25 | 1008.8 |
| 20260509194819 | 85 | 155 | 0.9 | 4.3 | 0.00 | 0.00 | 0.00 | 27 | 1008.9 |
| 20260509194538 | 85 | 148 | 0.0 | 4.3 | 0.00 | 0.00 | 0.00 | 26 | 1007.7 |
| 20260509194320 | 85 | 214 | 0.0 | 4.3 | 0.00 | 0.00 | 0.00 | 27 | 1008.9 |
| 20260509193843 | 85 | 250 | 0.0 | 3.5 | 0.00 | 0.00 | 0.00 | 30 | 1009.0 |
| 20260509193342 | 85 | 214 | 0.9 | 3.5 | 0.00 | 0.00 | 0.00 | 27 | 1009.1 |
| 20260509193127 | 84 | 236 | 0.0 | 3.5 | 0.00 | 0.00 | 0.00 | 28 | 1007.9 |
| 20260509192858 | 85 | 169 | 0.0 | 3.5 | 0.00 | 0.00 | 0.00 | 29 | 1009.1 |
| 20260509192331 | 84 | 344 | 0.0 | 0.0 | 0.00 | 0.00 | 0.00 | 28 | 1009.1 |
| 20260509191854 | 83 | 281 | 0.0 | 0.0 | 0.00 | 0.00 | 0.00 | 28 | 1009.2 |
| 20260509191530 | 82 | 301 | 0.0 | 0.0 | 0.00 | 0.00 | 0.00 | 28 | 1008.1 |
| 20260509191329 | 83 | 300 | 0.0 | 0.0 | 0.00 | 0.00 | 0.00 | 28 | 1009.4 |
| 20260509190821 | 82 | 284 | 0.0 | 0.0 | 0.00 | 0.00 | 0.00 | 28 | 1009.4 |
| 20260509190314 | 82 | 250 | 0.0 | 0.0 | 0.00 | 0.00 | 0.00 | 31 | 1009.4 |
| 20260509190118 | 82 | 319 | 0.0 | 0.0 | 0.00 | 0.00 | 0.00 | 31 | 1008.2 |
| 20260509185817 | 82 | 267 | 0.0 | 0.0 | 0.00 | 0.00 | 0.00 | 30 | 1009.5 |
| 20260509185323 | 81 | 267 | 0.0 | 0.9 | 0.00 | 0.00 | 0.00 | 33 | 1009.5 |
| 20260509184825 | 81 | 310 | 0.0 | 0.9 | 0.00 | 0.00 | 0.00 | 30 | 1009.6 |
| 20260509184541 | 81 | 269 | 0.0 | 0.9 | 0.00 | 0.00 | 0.00 | 31 | 1008.5 |
| 20260509184338 | 81 | 259 | 0.0 | 0.0 | 0.00 | 0.00 | 0.00 | 32 | 1009.6 |
| 20260509183822 | 81 | 258 | 0.0 | 0.9 | 0.00 | 0.00 | 0.00 | 33 | 1009.7 |
| 20260509183330 | 81 | 266 | 0.0 | 2.6 | 0.00 | 0.00 | 0.00 | 31 | 1009.8 |
| 20260509183018 | 81 | 267 | 0.0 | 2.6 | 0.00 | 0.00 | 0.00 | 33 | 1008.7 |
| 20260509182825 | 82 | 267 | 0.0 | 3.5 | 0.00 | 0.00 | 0.00 | 30 | 1009.8 |
| 20260509182330 | 82 | 262 | 0.0 | 3.5 | 0.00 | 0.00 | 0.00 | 32 | 1009.9 |
| 20260509181838 | 82 | 257 | 0.0 | 3.5 | 0.00 | 0.00 | 0.00 | 31 | 1009.9 |
| 20260509181552 | 82 | 268 | 0.0 | 3.5 | 0.00 | 0.00 | 0.00 | 31 | 1008.8 |
| 20260509181323 | 82 | 188 | 0.0 | 3.5 | 0.00 | 0.00 | 0.00 | 30 | 1010.1 |
| 20260509180820 | 82 | 244 | 0.0 | 1.7 | 0.00 | 0.00 | 0.00 | 32 | 1010.2 |
| 20260509180320 | 82 | 196 | 0.0 | 2.6 | 0.00 | 0.00 | 0.00 | 32 | 1010.2 |
| 20260509180013 | 81 | 259 | 0.0 | 3.5 | 0.00 | 0.00 | 0.00 | 33 | 1009.0 |
| 20260509175820 | 82 | 259 | 0.0 | 3.5 | 0.00 | 0.00 | 0.00 | 32 | 1010.3 |
| 20260509175347 | 82 | 254 | 0.0 | 3.5 | 0.00 | 0.00 | 0.00 | 33 | 1010.3 |
| 20260509174828 | 81 | 238 | 0.0 | 3.5 | 0.00 | 0.00 | 0.00 | 33 | 1010.4 |
| 20260509174543 | 81 | 227 | 0.0 | 3.5 | 0.00 | 0.00 | 0.00 | 32 | 1009.2 |
| 20260509174340 | 81 | 220 | 0.0 | 3.5 | 0.00 | 0.00 | 0.00 | 34 | 1010.5 |
| 20260509173823 | 81 | 247 | 0.0 | 1.7 | 0.00 | 0.00 | 0.00 | 33 | 1010.5 |
| 20260509173353 | 81 | 265 | 0.0 | 3.5 | 0.00 | 0.00 | 0.00 | 32 | 1010.7 |
| 20260509173052 | 81 | 265 | 0.0 | 3.5 | 0.00 | 0.00 | 0.00 | 33 | 1009.7 |
| 20260509172846 | 82 | 259 | 0.0 | 4.3 | 0.00 | 0.00 | 0.00 | 32 | 1010.8 |
| 20260509172332 | 82 | 261 | 0.9 | 4.3 | 0.00 | 0.00 | 0.00 | 33 | 1010.9 |
| 20260509171829 | 81 | 267 | 0.9 | 4.3 | 0.00 | 0.00 | 0.00 | 37 | 1011.0 |
| 20260509171502 | 80 | 280 | 0.0 | 3.5 | 0.00 | 0.00 | 0.00 | 35 | 1009.9 |
| 20260509171358 | 80 | 275 | 0.0 | 3.5 | 0.00 | 0.00 | 0.00 | 35 | 1011.0 |
| 20260509170823 | 80 | 255 | 0.0 | 3.5 | 0.00 | 0.00 | 0.00 | 37 | 1011.1 |
| 20260509170328 | 79 | 273 | 0.0 | 2.6 | 0.00 | 0.00 | 0.00 | 40 | 1011.1 |
| 20260509170052 | 78 | 209 | 0.0 | 2.6 | 0.00 | 0.00 | 0.00 | 39 | 1010.1 |
| 20260509165824 | 78 | 229 | 0.0 | 3.5 | 0.00 | 0.00 | 0.00 | 40 | 1011.1 |
| 20260509165328 | 78 | 216 | 0.9 | 5.2 | 0.00 | 0.00 | 0.00 | 41 | 1011.1 |
| 20260509164817 | 78 | 233 | 0.0 | 2.6 | 0.00 | 0.00 | 0.00 | 37 | 1011.1 |
| 20260509164607 | 78 | 181 | 0.0 | 2.6 | 0.00 | 0.00 | 0.00 | 38 | 1010.1 |
| 20260509164318 | 78 | 291 | 0.0 | 4.3 | 0.00 | 0.00 | 0.00 | 38 | 1011.1 |
| 20260509163818 | 78 | 229 | 0.0 | 4.3 | 0.00 | 0.00 | 0.00 | 42 | 1011.2 |
| 20260509163320 | 77 | 224 | 0.0 | 4.3 | 0.00 | 0.00 | 0.00 | 42 | 1011.2 |
| 20260509163040 | 76 | 246 | 0.0 | 4.3 | 0.00 | 0.00 | 0.00 | 43 | 1010.2 |
| 20260509162820 | 77 | 238 | 0.0 | 3.5 | 0.00 | 0.00 | 0.00 | 45 | 1011.3 |
| 20260509162342 | 77 | 209 | 0.9 | 3.5 | 0.00 | 0.00 | 0.00 | 43 | 1011.3 |
| 20260509161825 | 77 | 290 | 0.0 | 0.9 | 0.00 | 0.00 | 0.00 | 45 | 1011.2 |
| 20260509161527 | 76 | 236 | 0.0 | 0.9 | 0.00 | 0.00 | 0.00 | 44 | 1010.1 |
| 20260509161321 | 76 | 226 | 0.0 | 0.9 | 0.00 | 0.00 | 0.00 | 46 | 1011.2 |
| 20260509160826 | 75 | 279 | 0.0 | 1.7 | 0.00 | 0.00 | 0.00 | 49 | 1011.2 |
| 20260509160347 | 75 | 213 | 0.0 | 1.7 | 0.00 | 0.00 | 0.00 | 50 | 1011.1 |
| 20260509160036 | 74 | 196 | 0.0 | 4.3 | 0.00 | 0.00 | 0.00 | 47 | 1010.1 |
| 20260509155821 | 75 | 192 | 0.0 | 4.3 | 0.00 | 0.00 | 0.00 | 46 | 1011.1 |
| 20260509155321 | 75 | 217 | 0.9 | 4.3 | 0.00 | 0.00 | 0.00 | 49 | 1011.1 |
| 20260509154826 | 75 | 249 | 0.0 | 4.3 | 0.00 | 0.00 | 0.00 | 46 | 1011.2 |
| 20260509154552 | 75 | 209 | 0.9 | 4.3 | 0.00 | 0.00 | 0.00 | 46 | 1010.2 |
| 20260509154354 | 76 | 258 | 0.0 | 4.3 | 0.00 | 0.00 | 0.00 | 46 | 1011.2 |
| 20260509153842 | 76 | 260 | 0.0 | 4.3 | 0.00 | 0.00 | 0.00 | 44 | 1011.1 |
| 20260509153320 | 76 | 212 | 0.0 | 0.9 | 0.00 | 0.00 | 0.00 | 44 | 1010.9 |
| 20260509153024 | 76 | 237 | 0.0 | 0.9 | 0.00 | 0.00 | 0.00 | 45 | 1009.9 |
| 20260509152822 | 76 | 247 | 0.0 | 2.6 | 0.00 | 0.00 | 0.00 | 46 | 1010.9 |
| 20260509152324 | 76 | 245 | 0.0 | 4.3 | 0.00 | 0.00 | 0.00 | 46 | 1011.1 |
| 20260509151847 | 75 | 212 | 0.0 | 3.5 | 0.00 | 0.00 | 0.00 | 50 | 1011.0 |
| 20260509151601 | 74 | 153 | 0.0 | 3.5 | 0.00 | 0.00 | 0.00 | 48 | 1010.0 |
| 20260509151323 | 74 | 236 | 0.0 | 3.5 | 0.00 | 0.00 | 0.00 | 51 | 1011.0 |
| 20260509150845 | 73 | 247 | 0.0 | 2.6 | 0.00 | 0.00 | 0.00 | 51 | 1011.1 |
| 20260509150345 | 73 | 233 | 0.0 | 2.6 | 0.00 | 0.00 | 0.00 | 52 | 1010.9 |
| 20260509150108 | 72 | 236 | 0.0 | 1.7 | 0.00 | 0.00 | 0.00 | 55 | 1010.0 |
| 20260509145832 | 72 | 232 | 0.0 | 1.7 | 0.00 | 0.00 | 0.00 | 53 | 1011.1 |
| 20260509145326 | 71 | 267 | 0.0 | 3.5 | 0.00 | 0.00 | 0.00 | 55 | 1010.9 |
| 20260509144823 | 71 | 254 | 0.0 | 3.5 | 0.00 | 0.00 | 0.00 | 58 | 1010.9 |
| 20260509144524 | 70 | 198 | 0.0 | 3.5 | 0.00 | 0.00 | 0.00 | 57 | 1009.9 |
| 20260509144346 | 70 | 232 | 0.0 | 3.5 | 0.00 | 0.00 | 0.00 | 58 | 1010.8 |